Погода Колпашево

Погода Колпашево : погода сейчас, прогноз погоды и архив. Всё, что Вы хотите узнать о погоде Колпашево!

Хотите узнать прогноз погоды Колпашево? Тогда Вам сюда: Погода Колпашево

Поиск расширенной информации на нашем сайте:

Другие новости

Новости СМИ2

Главная страница сайта

Новости сайта

02.10.2013

Напоминаем, что на нашем новом сайте вы можете получить высокодетализированные прогнозы погоды по пунктам России, СНГ и мира (включающие важные для авиации метеовеличины, такие как направление и скорость ветра, видимость, явления погоды, количество и форма облачности, нижняя и верхняя граница облачности), а также ознакомиться с разнообразными материалами по авиационной метеорологии и подборкой полезных ссылок на эту тему.

Сайт Метеоцентр.Азия посвящён разработке технологий оптимизации авиаметеорологического обслуживания, включая проектирование и перспективное создание нескольких автоматизированных авиаметеорологических систем:
- система выпуска высокодетальных прогностических карт явлений погоды для нижнего воздушного пространства по России и ближнему зарубежью;
- система верификации прогнозов TAF (выпускаемых синоптиками официальных АМСГ РФ и ближнего зарубежья) и AUTOTAF (выпускаемых сайтом Метеоцентр.Азия) - выявление ошибок, онлайн-сопоставление с фактической погодой METAR, автоматическое внесение коррективов в прогнозы при резком отклонении фактической погоды от прогноза, подсчёт оправдываемости прогнозов по элементам и в целом;
- система обработки, анализа и отображения авиаметеорологической информации для применения провайдерами метеорологической информации.

Рекомендуем: Видео и фото на свадьбу bachinskiy.kiev.ua.

Погода Колпашево - сегодня

Время (UTC), дата Ветер
(°,м/с) 
Видим.   Явления Облачность Т
(°С)
Тd
(°С)
f(%) Тe
(°С)
Pmin
(гПа)
dP
(гПа)
Po
(мм)
O2
(г/м3)
Тmin Tmax R s Состояние
почвы
12 26.06.17 290 (З) 20000 м  {ливн. осадки}  3/0 верхняя 
[Ci fib]
+24.3 +14.9 56 +33  1004.5  747  273    +24.5     
15 26.06.17 тихо ()   20000 м    3/0 600 м средняя, верхняя 
[Sc diur, vesp|Ac cuf|Ci fib]
+17.2 +15.3 89 +27  1005  0.3  747  280           
18 26.06.17 тихо ()   20000 м    1/0 верхняя 
[Ci fib]
+13.3 +12.6 96 +18  1005.2  747  285           
21 26.06.17 110 (В) 4000 м  дымка  5/0 средняя, верхняя 
[Ac trans|Cc]
+12.8 +12.2 96 +18  1004.4  -0.8  746  285           
00 27.06.17 130 (ЮВ) 20000 м    3/1 1000 м средняя, верхняя 
[Sc diur, vesp|Ac trans|Cc]
+18 +17 94 +31  1004.1  -0.1  746  278  +12.6        влажная 
03 27.06.17 180 (Ю) 20000 м    8/0 верхняя 
[Ci fib]
+22.9 +17.6 72 +37  1004.3  0.3  747  274           
06 27.06.17 200 (Ю) 20000 м    8/0 средняя, верхняя 
[Ac trans|Ci sp]
+26.8 +15.1 49 +36  1004.8  0.7  747  271           
09 27.06.17 190 (Ю) 20000 м    8/3 600 м кучево-дожд., средняя, верхняя 
[Cb cap|Ac trans|Ci fib]
+27.3 +15.7 49 +37  1005.1  0.3  747  270           
12 27.06.17 290 (З) 20000 м    9/4 600 м кучево-дожд., средняя, верхняя 
[Cb cap|Ac trans|Ci fib]
+24.2 +13.3 51 +30  1005.8  0.6  748  274    +27.6       
15 27.06.17 260 (З) 20000 м    10/8 600 м кучево-дожд., средняя 
[Cb cap|Ac trans]
+20.4 +12.3 60 +25  1006.8  0.9  749  278           
18 27.06.17 тихо ()   10 км  слаб. ливневой дождь  10/8 600 м кучево-дожд., средняя 
[Cb cap|Ac trans]
+16.2 +13 81 +22  1008.5  1.5  750  283           
21 27.06.17 190 (Ю) 20000 м    10/0 средняя, верхняя 
[Ac lent|Ci fib]
+15 +13 88 +21  1008.6  -0.1  750  284           
00 28.06.17 200 (Ю) 20000 м    9/0 средняя, верхняя 
[Ac lent|Ci fib]
+14.7 +13 90 +21  1009.4  0.8  750  284  +14.3    0.3    влажная 
03 28.06.17 200 (Ю) 20000 м    3/0 верхняя 
[Ci fib]
+20.3 +13.9 67 +27  1009.7  0.5  751  279           
06 28.06.17 220 (ЮЗ) 20000 м    6/6 1000 м 
[Cu hum]
+23.5 +11.7 47 +27  1009.3  -0.4  750  276           
09 28.06.17 180 (Ю) 20000 м    4/4 1000 м 
[Cu hum]
+24.7 +11.7 44 +28  1008.9  -0.4  750  275           
12 28.06.17 180 (Ю) 20000 м    8/3 1000 м верхняя 
[Cu hum|Ci fib]
+25.2 +12 44 +29  1008.6  -0.3  750  274    +25.5       
15 28.06.17 160 (Ю) 20000 м    8/4 600 м средняя, верхняя 
[Cu med, cong|Ac trans|Ci fib]
+22.3 +14 59 +29  1008.8  0.2  750  277           
18 28.06.17 170 (Ю) 20000 м    6/0 средняя, верхняя 
[Ac cast|Ci fib]
+21 +13.9 64 +28  1009  0.2  750  278           
21 28.06.17 170 (Ю) 20000 м    6/4 1000 м средняя 
[Cu med, cong|Ac cast]
+19.7 +14.2 71 +28  1008.7  -0.3  750  279           
00 29.06.17 160 (Ю) 20000 м    8/6 600 м кучево-дожд., средняя 
[Cb cap|Ac trans]
+19.9 +14.9 73 +30  1008.7  750  279  +18.9        сухая 
03 29.06.17 160 (Ю) 20000 м  {ливн. осадки}  8/6 600 м кучево-дожд., верхняя 
[Cb cap|Ci fib]
+21.5 +15.9 70 +32  1008.2  -0.4  750  277           
06 29.06.17 130 (ЮВ) 20000 м  {ливн. осадки}  3/0 верхняя 
[Ci fib]
+26.3 +18 60 +41  1006.8  -1.3  749  271           
09 29.06.17 150 (ЮВ) 20000 м  гроза без осадков  8/6 300 м кучево-дожд., средняя 
[Cb cap|Ac trans]
+28.1 +17 51 +41  1003.9  -2.8  746  269           
12 29.06.17 160 (Ю) 2{15}  10 км  гроза, ливневой дождь  10/10 240 м кучево-дожд. 
[Cb cap]
+18 +17.3 96 +32  1005.5  1.3  747  279    +28.6  27     
Время (UTC), дата Ветер
(°,м/с) 
Видим.   Явления Облачность Т
(°С)
Тd
(°С)
f(%) Тe
(°С)
Pmin
(гПа)
dP
(гПа)
Po
(мм)
O2
(г/м3)
Тmin Tmax R s Состояние
почвы

Для получения пояснительной информации подведите курсор к названию столбца.

ПОГОДА Колпашево - архив

Всё, что Вы хотите узнать о погоде Колпашево - удобно и подробно!

Выберите нужную дату (начиная с 1 января 2015* года) и нажмите кнопку "Найти".
Будут отображены архивные сводки погоды по пункту Колпашево, начиная с указанной даты.


Отображать данные в формате CSV (для использования в таблицах Excel)


Внимание! Наш архив погоды предназначен исключительно для личного некоммерческого использования в познавательных целях. Если Вам необходимы официальные справки о состоянии погоды (для производственных, юридических, коммерческих и т.п. целей), обращайтесь в органы Росгидромета.

*Примечание: данная дата относится к архиву по метеостанциям СССР (Россия, СНГ, Балтия).
Архив по метеостанциям Зарубежной Европы и Азии (кроме Китая) хранится 10 дней, по другим регионам земного шара (Китай, Африка, Америка, Австралия, Океания) - 1 день.

Колпашево - район местоположения метеостанции


Название, широта, долгота, высота метеостанции:
Колпашево 58.3°ш. 82.9°д. 75 м над ур. моря [Российская Федерация]

Дополнительная информация

В oтличие oт бoльшинства пoгoдных сайтoв мы публикуем пoдрoбную метеoинфoрмацию в детальнoм прoфессиoнальнoм фoрмате.

Характеристики температуры и влажнoсти вoздуха измеряются на высoте 2 м в тени вдали oт зданий и деревьев.
Скoрoсть ветра измеряется на высoте 10 м (на урoвне рoста челoвека скoрoсть ветра ниже в 1.5-2 раза). Если метеoстанция нахoдится в гoрoде или в лесу, тo скoрoсть ветра занижена на 2-4 м/с пo сравнению с oткрытым местoм. Скoрoсть ветра над акватoриями крупных рек и oзёр, а также на вершинах хoлмoв на 2-5 м/с выше, чем в oбычных услoвиях.
Атмoсфернoе давление в разных тoчках местнoсти мoжет значительнo oтличаться oт давления на метеoстанции, в зависимoсти oт услoвий рельефа (при пoдъёме на 10 м давление пoнижается примернo на 1 мм рт.ст.).